This is the latest recevied weather packets stored in our database for station/object IW2MUC-12. If no packets are shown the sender has not sent any weather packets the latest 10 day(s).
| Time | Temp. | Humidity | Pressure | Rain* | Wind** | Luminosity | Snow |
|---|---|---|---|---|---|---|---|
| 1777820983 | 31.11° C | 21% | 989 hPa | - | - | - | - |
| 1777820379 | 30.56° C | 21% | 990 hPa | - | - | - | - |
| 1777819775 | 31.11° C | 20% | 990 hPa | - | - | - | - |
| 1777819171 | 31.67° C | 20% | 992 hPa | - | - | - | - |
| 1777818559 | 31.67° C | 21% | 991 hPa | - | - | - | - |
| 1777817955 | 32.78° C | 21% | 990 hPa | - | - | - | - |
| 1777817351 | 32.78° C | 23% | 991 hPa | - | - | - | - |
| 1777816747 | 32.78° C | 23% | 991 hPa | - | - | - | - |
| 1777816143 | 32.78° C | 24% | 991 hPa | - | - | - | - |
| 1777815539 | 32.22° C | 24% | 991 hPa | - | - | - | - |
| 1777814331 | 32.78° C | 25% | 991 hPa | - | - | - | - |
| 1777813727 | 32.78° C | 25% | 991 hPa | - | - | - | - |
| 1777813123 | 32.22° C | 26% | 991 hPa | - | - | - | - |
| 1777812519 | 32.22° C | 26% | 991 hPa | - | - | - | - |
| 1777811915 | 32.22° C | 26% | 991 hPa | - | - | - | - |
| 1777811311 | 32.22° C | 27% | 991 hPa | - | - | - | - |
| 1777810707 | 32.22° C | 27% | 991 hPa | - | - | - | - |
| 1777810103 | 32.22° C | 27% | 991 hPa | - | - | - | - |
| 1777809499 | 32.22° C | 26% | 991 hPa | - | - | - | - |
| 1777808890 | 32.78° C | 29% | 990 hPa | - | - | - | - |
| 1777808286 | 31.67° C | 36% | 987 hPa | - | - | - | - |
| 1777807680 | 30.56° C | 38% | 987 hPa | - | - | - | - |
| 1777807076 | 29.44° C | 39% | 987 hPa | - | - | - | - |
| 1777806472 | 28.33° C | 40% | 988 hPa | - | - | - | - |
| 1777805868 | 26.67° C | 42% | 988 hPa | - | - | - | - |
* Rain since midnight (hover to see other rain measurements)
** Current wind speed in m/s (hover to see current wind gust speed)